Regional Weather Roundup
Issued by NWS

Home | Current Version | Previous Version | Text Only | Print | Product List | Glossary Off
Versions: 1 2 3 4 5 6 7 8 9 10 11 12 13 14 15 16 17 18 19 20 21 22 23 24 25 26 27 28 29 30 31 32 33 34 35 36 37 38 39 40 41 42 43 44 45 46 47 48 49

000
ASUS45 KCYS 032010
RWRWY

WYOMING REGIONAL WEATHER ROUNDUP
NATIONAL WEATHER SERVICE CHEYENNE WY
200 PM MDT SUN MAY 03 2015

NOTE:  "FAIR" INDICATES FEW OR NO CLOUDS BELOW 12,000 FEET
WITH NO SIGNIFICANT WEATHER AND/OR OBSTRUCTIONS TO VISIBILITY.

WYZ001-032100-
YELLOWSTONE NATIONAL PARK

CITY           SKY/WX    TMP DP  RH WIND       PRES   REMARKS
LK YELLOWSTONE   N/A     57  22  25 VRB5      30.06F
W YELLOWSTONE  NOT AVBL

$$
WYZ002>013-054>058-071-098>099-032100-
NORTHERN WYOMING

CITY           SKY/WX    TMP DP  RH WIND       PRES   REMARKS
JACKSON        MOSUNNY   61  32  33 VRB5      30.01F
CODY           FAIR      55  36  47 N8        30.00S
GREYBULL       FAIR      67  32  27 SW8       29.94F
WORLAND        FAIR      66  35  31 NE5       29.94F
SHERIDAN       FAIR      63  40  42 E10       30.00F
BUFFALO        FAIR      62  38  40 SE12      30.02F
GILLETTE       FAIR      62  35  36 N9        30.01S
HULETT         FAIR      61  37  41 N10G20    30.03S
NEWCASTLE      FAIR      68  32  26 S12G22    29.99S

$$
WYZ014>020-022>026-101>103-032100-
CENTRAL WYOMING

CITY           SKY/WX    TMP DP  RH WIND       PRES   REMARKS
BIG PINEY      CLOUDY    58  30  34 NW9       30.04R
PINEDALE       FAIR      57  30  35 NW8       30.03S
DUBOIS         FAIR      61  23  23 W18       29.99F
LANDER         FAIR      66  35  31 VRB5      29.93F
RIVERTON       FAIR      68  32  26 SW3       29.95F
CASPER         FAIR      60  36  40 N6        29.99F
DOUGLAS        FAIR      68  38  33 E6        29.99F

$$
WYZ021-027>030-104>119-032100-
SOUTHERN WYOMING

CITY           SKY/WX    TMP DP  RH WIND       PRES   REMARKS
EVANSTON       CLOUDY    60  37  42 N10       30.02F
KEMMERER       FAIR      59  32  36 NW17G24   30.04F
FORT BRIDGER   MOCLDY    59  37  44 N7        30.05F
ROCK SPRINGS   FAIR      64  34  32 W6        30.00F
DIXON          FAIR      69  32  25 W8        30.03F
RAWLINS        LGT RAIN  66  33  29 SW12G18   30.01F
SARATOGA       MOCLDY    64  34  32 E10       30.03F
LARAMIE        PTSUNNY   57  35  43 NW6       30.06R
CHEYENNE       FAIR      62  38  40 NE16G23   30.00F
TORRINGTON     FAIR      70  38  31 NE14G21   29.95F
PINE BLUFFS    FAIR      68  37  32 NE12G21   29.98F

$$



USA.gov is the U.S. government's official web portal to all federal, state and local government web resources and services.